Flag for Germany Weather past 2 weeks in Halle, Saxony-Anhalt, Germany

Now
66 °F

Clear.


Feels Like: 66 °F
Forecast: 63 / 74 °F
Wind: 3 mph from North

Location: Leipzig-Schkeuditz

Current Time: Jul 29, 2014 at 3:59:27 AM

Latest Report: Jul 29, 2014 at 3:20 AM


Visibility: 10 mi

Pressure: 29.80 "Hg

Humidity: 94%

Dew point: 64 °F

Location of HalleLocation

Historic Weather in Halle — Graph

°F

Halle temperature yesterday

Maximum temperature yesterday: 82 °F (at 4:20 PM)
Minimum temperature yesterday: 64 °F (at 12:20 AM)
Average temperature yesterday: 73 °F

Past Weeks' High & Low Weather Summary

 TemperatureHumidityPressure
High93 °F (Jul 20, 3:50 PM)100% (Jul 24, 8:50 PM)30.18 "Hg (Jul 24, 8:50 PM)
Low57 °F (Jul 16, 4:50 AM)22% (Jul 19, 6:50 PM)29.74 "Hg (Jul 21, 3:20 AM)
Average72 °F68%29.98 "Hg
* Reported Jul 14 2:20 AM — Jul 29 2:50 AM, Halle, Weather by CustomWeather, © 2014

Note: Actual official high and low records may vary slightly from our data, if they occured in-between our weather recording intervals... More about our weather records

Advertising

Halle weather history for previous 24 hours

 ConditionsComfort  
Time TempWeatherWind HumidityBarometerVisibility
2:50 AM
Jul 29
66 °FClear.3 mph94%29.80 "Hg10 mi
2:20 AM66 °FClear.3 mph94%29.80 "Hg10 mi
1:50 AM66 °FSprinkles. Passing clouds.2 mph100%29.80 "HgN/A
1:20 AM66 °FRain showers. Partly cloudy.6 mph94%29.83 "HgN/A
12:50 AM66 °FThundershowers. Partly cloudy.3 mph94%29.86 "HgN/A
12:20 AM70 °FThundershowers. Passing clouds.17 mph78%29.86 "HgN/A
10:50 PM
Jul 28
73 °FClear.5 mph78%29.83 "Hg10 mi
10:20 PM73 °FClear.7 mph78%29.83 "Hg10 mi
9:50 PM73 °FSunny.6 mph78%29.86 "Hg10 mi
9:20 PM75 °FSunny.7 mph74%29.83 "Hg10 mi
8:50 PM77 °FPartly sunny.8 mph69%29.83 "HgN/A
8:20 PM77 °FPartly sunny.9 mph69%29.83 "HgN/A
7:50 PM79 °FPartly sunny.9 mph65%29.83 "HgN/A
7:20 PM81 °FPartly sunny.10 mph62%29.83 "HgN/A
6:50 PM81 °FPartly sunny.10 mph58%29.83 "HgN/A
6:20 PM81 °FPartly sunny.10 mph58%29.83 "HgN/A
5:50 PM81 °FPartly sunny.10 mph58%29.83 "HgN/A
5:20 PM81 °FBroken clouds.12 mph58%29.83 "HgN/A
4:50 PM82 °FBroken clouds.12 mph58%29.83 "HgN/A
4:20 PM82 °FPartly sunny.7 mph55%29.83 "HgN/A
3:50 PM81 °FPartly sunny.6 mph58%29.86 "HgN/A
3:20 PM81 °FBroken clouds.9 mph62%29.86 "HgN/A
2:50 PM81 °FBroken clouds.6 mph62%29.89 "HgN/A
2:20 PM81 °FPartly sunny.6 mph54%29.89 "HgN/A
1:50 PM79 °FPartly sunny.7 mph61%29.89 "HgN/A
1:20 PM79 °FPartly sunny.6 mph61%29.89 "HgN/A
12:50 PM77 °FPartly sunny.5 mph65%29.89 "HgN/A
12:20 PM75 °FPartly sunny.5 mph74%29.92 "HgN/A
11:50 AM75 °FPassing clouds.5 mph74%29.92 "HgN/A
11:20 AM73 °FSunny.3 mph78%29.92 "Hg10 mi
10:50 AM72 °FSunny.3 mph83%29.92 "Hg10 mi
10:20 AM72 °FSunny.2 mph78%29.92 "Hg10 mi
9:50 AM70 °FSunny.3 mph88%29.92 "Hg10 mi
9:20 AM68 °FSunny.5 mph88%29.92 "Hg10 mi
8:50 AM66 °FSunny.3 mph94%29.95 "Hg10 mi
8:20 AM66 °FSunny.3 mph94%29.95 "Hg10 mi
7:50 AM64 °FPartly sunny.5 mph100%29.95 "HgN/A
7:20 AM64 °FBroken clouds.6 mph100%29.95 "Hg4 mi
6:50 AM64 °FLight rain. Partly sunny.2 mph100%29.95 "Hg5 mi
6:20 AM64 °FLight rain. Passing clouds.1 mph100%29.95 "Hg4 mi
5:50 AM64 °FLight rain. Passing clouds.1 mph100%29.95 "Hg3 mi
5:20 AM64 °FLight rain. Passing clouds.3 mph100%29.95 "Hg5 mi
4:20 AM64 °FLight rain. Passing clouds.5 mph100%29.95 "HgN/A
3:50 AM64 °FLight rain. Clear.5 mph94%29.95 "HgN/A
3:20 AM64 °FClear.3 mph94%29.95 "Hg10 mi
Weather by CustomWeather, © 2014

See weather overviewHow to use our weather pages